Погода в Кистутове

Россия / Тверская область     57°47′21″N   35°34′36″E
темп.,
°C
ветер,
м/с
пор.,
м/с
влажн.,
%
обл.,
%
осадки,
мм/ч
давл.,
гПа
погр.,
м
21 июня, пн
пн2100:00+20ююз118175 0.0 101916
03:00+19ююз11898 0.0 101913
06:00+21зюз128532 0.0 102086
09:00+27ююз11565 0.0 1020571
12:00+30ю2244100 0.0 10191876
15:00+31ююз233924 0.0 10192386
18:00+31ююз234655 0.0 10181737
21:00+23ююз387628 0.1 1019181
22 июня, вт
вт2200:00+19ююз119199 0.9 102012
03:00+17ю229257 1.0 102017
06:00+19ю24905 0.0 1020108
09:00+26ю24595 0.0 1020531
12:00+30ююв34415 0.0 10191361
15:00+32ю353732 0.0 10191817
18:00+31ю35445 0.0 10181087
21:00+23ююз2676100 0.0 1019107
23 июня, ср
ср2300:00+21ююз2773100 0.0 1019141
03:00+19ююз2682100 0.0 1020114
06:00+21ююз278394 0.0 1020186
09:00+27ююз245767 0.0 1020525
12:00+32ююз353964 0.0 10201702
15:00+33юз35305 0.0 10192330
18:00+32юз35385 0.0 1019639
21:00+24ююз376876 0.0 1018127
24 июня, чт
чт2400:00+21ююз267884 0.0 1019118
03:00+20ююз26855 0.0 1019110
06:00+22юз258013 0.0 1019152
09:00+28юз35525 0.0 1019523
12:00+32юз35375 0.0 10182175
15:00+34юз35300 0.0 10172907
18:00+32ю57382 0.0 10141321
21:00+26ююз41158100 0.0 1015391
25 июня, пт
пт2500:00+18ю1193100 3.7 101714
03:00+17з1294100 3.7 101718
06:00+19зсз13935 0.0 1017129
09:00+24сз12678 0.0 1017607
12:00+29з23515 0.0 10161362
15:00+31зюз244222 0.0 10152301
18:00+28с245456 0.0 1014423
21:00+19з1193100 2.4 101411